Weather History for Tinker AFB, OK

Change the Weather History Date:

Tuesday, August 13, 2013

  Actual Average Record
Temperature  
Mean Temperature 78 °F -  
Max Temperature 84 °F 88 °F 104 °F (2010)
Min Temperature 70 °F 68 °F 60 °F (2004)
Cooling Degree Days 12    
Growing Degree Days 28 (Base 50)    
Moisture  
Dew Point 72 °F    
Average Humidity 93    
Maximum Humidity 100    
Minimum Humidity 70    
Precipitation  
Precipitation 0.80 in - - ()
Sea Level Pressure  
Sea Level Pressure 30.03 in    
Wind  
Wind Speed 7 mph (NNW)    
Max Wind Speed 14 mph    
Max Gust Speed 17 mph    
Visibility 8 miles    
Events Rain , Thunderstorm    
Averages and records for this station are not official NWS values.
T = Trace of Precipitation, MM = Missing Value Source: NWS Daily Summary

Daily Weather History Graph

Daily Weather History Graph

Search for Another Location

Airport:

Trip Planner

Search our weather history database for the weather conditions in past years. The results will help you decide how hot, cold, wet, or windy it might be!

Date:

Astronomy

Aug. 13, 2013 Rise Set
Actual Time 6:47 AM CDT 8:20 PM CDT
Civil Twilight 6:20 AM CDT 8:47 PM CDT
Nautical Twilight 5:47 AM CDT 9:19 PM CDT
Astronomical Twilight 5:13 AM CDT 9:54 PM CDT
Moon 1:26 PM CDT (8/13) No Moon Set
Length of Visible Light 14h 27m
Length of Day
13h 32m
Waxing Crescent, 42% of the Moon is Illuminated
Aug 13
Waxing Crescent
Aug 14
First Quarter
Aug 20
Full
Aug 28
Last Quarter
Sep 5
New

Hourly Weather History & Observations

Time (CDT) Temp. Heat Index Dew Point Humidity Pressure Visibility Wind Dir Wind Speed Gust Speed Precip Events Conditions
12:58 AM 75.9 °F - 75.0 °F 97% 29.97 in 10.0 mi SSE 4.6 mph - N/A   Scattered Clouds
1:58 AM 75.6 °F - 73.8 °F 94% 29.98 in 10.0 mi East 4.6 mph - N/A   Scattered Clouds
2:45 AM 75.2 °F - 73.4 °F 94% 30.01 in 10.0 mi NW 4.6 mph - N/A Rain Light Rain
2:55 AM 75.2 °F - 73.4 °F 94% 30.01 in 3.0 mi NNW 11.5 mph - N/A Rain Heavy Rain
2:58 AM 75.4 °F - 73.9 °F 95% 29.99 in 3.0 mi North 9.2 mph - 0.06 in Rain Heavy Rain
3:03 AM 75.2 °F - 73.4 °F 94% 30.01 in 6.0 mi NNW 5.8 mph - N/A Rain Light Rain
3:45 AM 73.4 °F - 73.4 °F 100% 29.99 in 10.0 mi East 5.8 mph - N/A   Partly Cloudy
3:58 AM 73.9 °F - 73.4 °F 98% 29.97 in 10.0 mi East 5.8 mph - 0.03 in   Partly Cloudy
4:05 AM 73.4 °F - 73.4 °F 100% 29.99 in 10.0 mi East 8.1 mph - N/A   Partly Cloudy
4:34 AM 73.4 °F - 73.4 °F 100% 30.01 in 10.0 mi NNE 5.8 mph - N/A Thunderstorm Light Drizzle
4:37 AM 73.4 °F - 73.4 °F 100% 30.02 in 10.0 mi NNE 5.8 mph - N/A Thunderstorm Light Drizzle
4:51 AM 73.4 °F - 73.4 °F 100% 30.02 in 9.0 mi NNE 6.9 mph - N/A Rain , Thunderstorm Thunderstorms and Rain
4:58 AM 73.8 °F - 73.4 °F 99% 29.99 in 7.0 mi NE 9.2 mph - 0.01 in Rain , Thunderstorm Thunderstorms and Rain
5:06 AM 73.4 °F - 73.4 °F 100% 30.01 in 7.0 mi NNE 9.2 mph - N/A Rain Light Rain
5:26 AM 73.4 °F - 73.4 °F 100% 30.01 in 10.0 mi North 9.2 mph - N/A Rain Light Rain
5:46 AM 73.4 °F - 73.4 °F 100% 30.02 in 10.0 mi NNE 6.9 mph - N/A Rain Light Rain
5:51 AM 73.4 °F - 73.4 °F 100% 30.02 in 10.0 mi North 5.8 mph - N/A   Light Drizzle
5:58 AM 73.4 °F - 73.4 °F 100% 30.01 in 10.0 mi NNW 8.1 mph - 0.03 in   Light Drizzle
6:08 AM 73.4 °F - 73.4 °F 100% 30.03 in 7.0 mi NNW 6.9 mph - N/A Rain Rain
6:13 AM 73.4 °F - 73.4 °F 100% 30.03 in 4.0 mi NNW 6.9 mph - N/A Rain Rain
6:23 AM 73.4 °F - 73.4 °F 100% 30.04 in 2.5 mi North 4.6 mph - N/A Rain , Thunderstorm Heavy Rain
6:28 AM 73.4 °F - 73.4 °F 100% 30.04 in 1.8 mi NNW 5.8 mph - N/A Rain , Thunderstorm Heavy Rain
6:33 AM 73.4 °F - 73.4 °F 100% 30.04 in 2.0 mi NNW 6.9 mph - N/A Rain , Thunderstorm Rain
6:38 AM 73.4 °F - 73.4 °F 100% 30.03 in 4.0 mi NNE 8.1 mph - N/A Rain , Thunderstorm Heavy Rain
6:58 AM 72.3 °F - 72.3 °F 100% 30.01 in 7.0 mi NE 3.5 mph - 0.27 in Rain Rain
7:58 AM 72.5 °F - 72.5 °F 100% 30.01 in 5.0 mi SSE 8.1 mph - 0.09 in Rain Light Rain
8:15 AM 71.6 °F - 71.6 °F 100% 30.02 in 8.0 mi SE 9.2 mph - N/A Rain , Thunderstorm Light Rain
8:36 AM 71.6 °F - 71.6 °F 100% 30.02 in 10.0 mi SE 8.1 mph - N/A   Clear
8:50 AM 71.6 °F - 71.6 °F 100% 30.04 in 10.0 mi South 8.1 mph - N/A Thunderstorm Thunderstorm
8:58 AM 72.0 °F - 72.0 °F 100% 30.04 in 10.0 mi SW 13.8 mph - 0.04 in Thunderstorm Thunderstorm
8:59 AM 71.6 °F - 71.6 °F 100% 30.05 in 6.0 mi SSW 12.7 mph - N/A Rain , Thunderstorm Light Thunderstorms and Rain
9:04 AM 71.6 °F - 71.6 °F 100% 30.06 in 1.5 mi South 12.7 mph - N/A Rain , Thunderstorm Heavy Thunderstorms and Rain
9:05 AM 71.6 °F - 71.6 °F 100% 30.05 in 1.2 mi South 11.5 mph - N/A Rain Heavy Rain
9:08 AM 71.6 °F - 71.6 °F 100% 30.05 in 1.2 mi South 13.8 mph - N/A Rain Rain
9:13 AM 71.6 °F - 71.6 °F 100% 30.04 in 1.5 mi SSE 10.4 mph - N/A Rain Light Rain
9:18 AM 71.6 °F - 71.6 °F 100% 30.04 in 2.5 mi SE 10.4 mph - N/A Rain Light Rain
9:23 AM 71.6 °F - 71.6 °F 100% 30.04 in 8.0 mi SE 9.2 mph - N/A Rain , Thunderstorm Light Rain
9:30 AM 71.6 °F - 71.6 °F 100% 30.04 in 10.0 mi South 9.2 mph - N/A Thunderstorm Scattered Clouds
9:43 AM 71.6 °F - 71.6 °F 100% 30.05 in 10.0 mi SSW 3.5 mph - N/A   Scattered Clouds
9:58 AM 72.5 °F - 72.0 °F 98% 30.05 in 10.0 mi South 4.6 mph - 0.24 in   Scattered Clouds
10:05 AM 73.4 °F - 71.6 °F 94% 30.06 in 10.0 mi SSW 8.1 mph - N/A   Light Drizzle
10:35 AM 73.4 °F - 71.6 °F 94% 30.06 in 10.0 mi South 8.1 mph - N/A Rain Light Rain
10:45 AM 73.4 °F - 73.4 °F 100% 30.06 in 10.0 mi South 9.2 mph - N/A   Light Drizzle
10:50 AM 73.4 °F - 73.4 °F 100% 30.06 in 10.0 mi South 9.2 mph - N/A   Mostly Cloudy
10:58 AM 73.6 °F - 73.4 °F 99% 30.05 in 10.0 mi South 10.4 mph - 0.02 in   Mostly Cloudy
11:33 AM 75.2 °F - 73.4 °F 94% 30.07 in 10.0 mi SSW 9.2 mph - N/A   Overcast
11:53 AM 75.2 °F - 71.6 °F 89% 30.07 in 10.0 mi SW 10.4 mph - N/A   Overcast
11:58 AM 74.8 °F - 72.3 °F 92% 30.06 in 10.0 mi SW 10.4 mph - N/A   Overcast
12:48 PM 75.2 °F - 71.6 °F 89% 30.07 in 10.0 mi WSW 8.1 mph - N/A   Overcast
12:58 PM 74.8 °F - 71.2 °F 88% 30.06 in 10.0 mi SW 9.2 mph - N/A   Overcast
1:03 PM 75.2 °F - 71.6 °F 89% 30.06 in 10.0 mi WSW 8.1 mph - N/A   Overcast
1:23 PM 75.2 °F - 71.6 °F 89% 30.06 in 10.0 mi West 5.8 mph - N/A   Mostly Cloudy
1:24 PM 75.2 °F - 71.6 °F 89% 30.06 in 10.0 mi West 6.9 mph - N/A   Light Drizzle
1:37 PM 75.2 °F - 71.6 °F 89% 30.06 in 10.0 mi West 8.1 mph - N/A   Partly Cloudy
1:41 PM 75.2 °F - 71.6 °F 89% 30.06 in 10.0 mi West 8.1 mph - N/A   Light Drizzle
1:54 PM 75.2 °F - 71.6 °F 89% 30.05 in 10.0 mi WNW 5.8 mph - N/A Rain Light Rain
1:58 PM 75.2 °F - 72.0 °F 90% 30.04 in 10.0 mi WNW 5.8 mph - 0.00 in   Light Drizzle
2:03 PM 75.2 °F - 71.6 °F 89% 30.05 in 10.0 mi West 4.6 mph - N/A Rain Light Rain
2:13 PM 75.2 °F - 71.6 °F 89% 30.04 in 10.0 mi West 3.5 mph - N/A Rain Light Rain
2:15 PM 75.2 °F - 71.6 °F 89% 30.04 in 10.0 mi Variable 3.5 mph - N/A Rain Light Rain
2:33 PM 77.0 °F - 73.4 °F 89% 30.03 in 10.0 mi NW 4.6 mph - N/A   Scattered Clouds
2:58 PM 77.2 °F - 73.0 °F 87% 30.01 in 10.0 mi WNW 5.8 mph - 0.01 in   Scattered Clouds
3:03 PM 77.0 °F - 73.4 °F 89% 30.03 in 10.0 mi WNW 6.9 mph - N/A   Mostly Cloudy
3:53 PM 78.8 °F - 73.4 °F 83% 30.01 in 10.0 mi Variable 3.5 mph - N/A   Mostly Cloudy
3:58 PM 79.3 °F - 72.7 °F 80% 30.00 in 10.0 mi North 4.6 mph - N/A   Mostly Cloudy
4:03 PM 80.6 °F 84.6 °F 71.6 °F 74% 30.01 in 10.0 mi NNW 3.5 mph - N/A   Scattered Clouds
4:23 PM 80.6 °F 85.4 °F 73.4 °F 79% 30.01 in 10.0 mi NNE 4.6 mph - N/A   Mostly Cloudy
4:48 PM 82.4 °F 87.2 °F 71.6 °F 70% 30.00 in 10.0 mi NNE 9.2 mph - N/A   Scattered Clouds
4:58 PM 81.1 °F 85.6 °F 72.3 °F 74% 29.99 in 10.0 mi North 6.9 mph - N/A   Partly Cloudy
5:53 PM 84.2 °F 90.9 °F 73.4 °F 70% 30.00 in 8.0 mi NNE 12.7 mph 17.3 mph N/A   Mostly Cloudy
5:58 PM 82.6 °F 88.8 °F 73.9 °F 75% 29.99 in 7.0 mi NE 11.5 mph 17.3 mph N/A   Mostly Cloudy
6:03 PM 80.6 °F 85.4 °F 73.4 °F 79% 30.00 in 8.0 mi NE 9.2 mph - N/A   Mostly Cloudy
6:58 PM 80.8 °F 84.9 °F 72.0 °F 74% 30.00 in 10.0 mi NE 8.1 mph - N/A   Partly Cloudy
7:58 PM 77.2 °F - 71.1 °F 81% 30.01 in 10.0 mi NE 8.1 mph - N/A   Clear
8:58 PM 74.1 °F - 70.5 °F 88% 30.03 in 10.0 mi ENE 11.5 mph - N/A   Clear
9:58 PM 72.7 °F - 70.0 °F 91% 30.07 in 10.0 mi NE 11.5 mph - N/A   Scattered Clouds
10:58 PM 71.4 °F - 69.1 °F 92% 30.06 in 10.0 mi ENE 4.6 mph - N/A   Partly Cloudy
11:58 PM 70.2 °F - 68.0 °F 93% 30.06 in 10.0 mi NE 5.8 mph - N/A   Clear